TimeCDT,TemperatureF,Dew PointF,Humidity,Sea Level PressureIn,VisibilityMPH,Wind Direction,Wind SpeedMPH,Gust SpeedMPH,PrecipitationIn,Events,Conditions,WindDirDegrees,DateUTC
12:15 AM,41.0,37.4,87,30.18,10.0,WSW,3.5,-,N/A,,Clear,240,2013-05-10 05:15:00
12:35 AM,41.0,37.4,87,30.17,10.0,SW,4.6,-,N/A,,Clear,220,2013-05-10 05:35:00
12:55 AM,42.8,37.4,81,30.17,10.0,SW,4.6,-,N/A,,Clear,230,2013-05-10 05:55:00
1:35 AM,41.0,37.4,87,30.18,10.0,SSW,5.8,-,N/A,,Clear,210,2013-05-10 06:35:00
1:55 AM,41.0,37.4,87,30.18,10.0,SW,4.6,-,N/A,,Clear,220,2013-05-10 06:55:00
2:15 AM,42.8,37.4,81,30.17,10.0,SW,6.9,-,N/A,,Clear,230,2013-05-10 07:15:00
2:35 AM,44.6,37.4,76,30.16,10.0,SW,6.9,-,N/A,,Clear,230,2013-05-10 07:35:00
2:55 AM,42.8,37.4,81,30.16,10.0,WSW,4.6,-,N/A,,Clear,250,2013-05-10 07:55:00
3:15 AM,44.6,37.4,76,30.15,10.0,Calm,Calm,-,N/A,,Clear,0,2013-05-10 08:15:00
3:35 AM,41.0,37.4,87,30.16,10.0,Calm,Calm,-,N/A,,Clear,0,2013-05-10 08:35:00
3:55 AM,44.6,37.4,76,30.16,10.0,West,4.6,-,N/A,,Clear,260,2013-05-10 08:55:00
4:15 AM,42.8,37.4,81,30.16,10.0,WSW,5.8,-,N/A,,Clear,250,2013-05-10 09:15:00
4:35 AM,41.0,37.4,87,30.15,10.0,SW,4.6,-,N/A,,Clear,230,2013-05-10 09:35:00
4:55 AM,41.0,37.4,87,30.14,10.0,South,3.5,-,N/A,,Clear,190,2013-05-10 09:55:00
5:15 AM,41.0,37.4,87,30.14,10.0,Calm,Calm,-,N/A,,Clear,0,2013-05-10 10:15:00
5:35 AM,41.0,35.6,81,30.14,10.0,Calm,Calm,-,N/A,,Clear,0,2013-05-10 10:35:00
5:55 AM,44.6,37.4,76,30.14,10.0,Calm,Calm,-,N/A,,Clear,0,2013-05-10 10:55:00
6:15 AM,44.6,37.4,76,30.13,10.0,Calm,Calm,-,N/A,,Clear,0,2013-05-10 11:15:00
6:35 AM,42.8,37.4,81,30.13,10.0,Calm,Calm,-,N/A,,Clear,0,2013-05-10 11:35:00
6:55 AM,44.6,37.4,76,30.13,10.0,Calm,Calm,-,N/A,,Partly Cloudy,0,2013-05-10 11:55:00
7:15 AM,46.4,39.2,76,30.13,10.0,Calm,Calm,-,N/A,,Partly Cloudy,0,2013-05-10 12:15:00
7:35 AM,50.0,41.0,71,30.14,10.0,Calm,Calm,-,N/A,,Partly Cloudy,0,2013-05-10 12:35:00
7:55 AM,51.8,41.0,67,30.14,10.0,Calm,Calm,-,N/A,,Partly Cloudy,0,2013-05-10 12:55:00
8:15 AM,53.6,42.8,67,30.14,10.0,Calm,Calm,-,N/A,,Clear,0,2013-05-10 13:15:00
8:35 AM,57.2,41.0,55,30.15,10.0,West,5.8,-,N/A,,Clear,280,2013-05-10 13:35:00
8:55 AM,59.0,42.8,55,30.15,10.0,NW,9.2,-,N/A,,Clear,320,2013-05-10 13:55:00
9:15 AM,59.0,41.0,51,30.15,10.0,WNW,10.4,-,N/A,,Clear,300,2013-05-10 14:15:00
9:35 AM,59.0,41.0,51,30.15,10.0,WNW,11.5,17.3,N/A,,Clear,300,2013-05-10 14:35:00
9:55 AM,60.8,42.8,52,30.16,10.0,NNW,15.0,20.7,N/A,,Clear,330,2013-05-10 14:55:00
10:15 AM,62.6,41.0,45,30.16,10.0,WNW,13.8,19.6,N/A,,Clear,300,2013-05-10 15:15:00
10:35 AM,62.6,41.0,45,30.16,10.0,WNW,15.0,23.0,N/A,,Clear,300,2013-05-10 15:35:00
10:55 AM,64.4,39.2,40,30.17,10.0,NNW,11.5,20.7,N/A,,Clear,330,2013-05-10 15:55:00
11:15 AM,64.4,37.4,37,30.17,10.0,NW,11.5,24.2,N/A,,Clear,310,2013-05-10 16:15:00
11:35 AM,64.4,37.4,37,30.18,10.0,NW,16.1,21.9,N/A,,Clear,310,2013-05-10 16:35:00
11:55 AM,66.2,33.8,30,30.18,10.0,North,12.7,24.2,N/A,,Clear,350,2013-05-10 16:55:00
12:15 PM,66.2,35.6,32,30.18,10.0,NW,11.5,18.4,N/A,,Clear,320,2013-05-10 17:15:00
12:35 PM,68.0,32.0,26,30.18,10.0,NNW,19.6,26.5,N/A,,Clear,330,2013-05-10 17:35:00
12:55 PM,68.0,32.0,26,30.18,10.0,NW,13.8,24.2,N/A,,Clear,320,2013-05-10 17:55:00
1:15 PM,68.0,30.2,24,30.17,10.0,NNW,15.0,21.9,N/A,,Clear,330,2013-05-10 18:15:00
1:35 PM,68.0,30.2,24,30.17,10.0,NNW,10.4,23.0,N/A,,Clear,340,2013-05-10 18:35:00
1:55 PM,69.8,32.0,25,30.17,10.0,NNW,10.4,20.7,N/A,,Clear,330,2013-05-10 18:55:00
2:15 PM,69.8,32.0,25,30.17,10.0,North,17.3,24.2,N/A,,Clear,10,2013-05-10 19:15:00
2:35 PM,69.8,32.0,25,30.16,10.0,NNW,11.5,19.6,N/A,,Partly Cloudy,340,2013-05-10 19:35:00
2:55 PM,68.0,32.0,26,30.16,10.0,NNW,13.8,17.3,N/A,,Partly Cloudy,340,2013-05-10 19:55:00
3:15 PM,69.8,32.0,25,30.16,10.0,NNE,15.0,18.4,N/A,,Clear,20,2013-05-10 20:15:00
3:35 PM,69.8,32.0,25,30.16,10.0,NNW,10.4,-,N/A,,Partly Cloudy,340,2013-05-10 20:35:00
3:55 PM,62.6,42.8,48,30.19,10.0,NNE,24.2,39.1,N/A,,Mostly Cloudy,20,2013-05-10 20:55:00
4:15 PM,59.0,44.6,59,30.21,10.0,NW,15.0,23.0,N/A,,Scattered Clouds,320,2013-05-10 21:15:00
4:35 PM,60.8,44.6,55,30.21,10.0,WNW,8.1,-,N/A,,Partly Cloudy,290,2013-05-10 21:35:00
4:55 PM,60.8,42.8,52,30.21,10.0,WSW,12.7,-,N/A,,Partly Cloudy,250,2013-05-10 21:55:00
5:15 PM,60.8,42.8,52,30.22,10.0,West,10.4,18.4,N/A,,Mostly Cloudy,280,2013-05-10 22:15:00
5:35 PM,57.2,46.4,67,30.23,5.0,West,12.7,-,0.03,Rain,Light Rain,270,2013-05-10 22:35:00
5:55 PM,53.6,46.4,77,30.25,2.0,West,18.4,35.7,0.15,Rain-Thunderstorm,Heavy Rain,260,2013-05-10 22:55:00
6:15 PM,53.6,48.2,82,30.25,10.0,WSW,13.8,17.3,0.01,,Overcast,240,2013-05-10 23:15:00
6:35 PM,53.6,48.2,82,30.25,10.0,WSW,9.2,-,0.01,,Overcast,240,2013-05-10 23:35:00
6:55 PM,57.2,48.2,72,30.25,10.0,WSW,10.4,-,0.01,,Scattered Clouds,240,2013-05-10 23:55:00
7:15 PM,55.4,46.4,72,30.25,10.0,West,6.9,-,N/A,,Mostly Cloudy,260,2013-05-11 00:15:00
7:35 PM,55.4,48.2,77,30.25,10.0,WNW,5.8,-,N/A,,Scattered Clouds,290,2013-05-11 00:35:00
7:55 PM,55.4,46.4,72,30.26,10.0,North,11.5,-,N/A,,Clear,350,2013-05-11 00:55:00
8:15 PM,53.6,37.4,54,30.28,10.0,North,15.0,28.8,N/A,,Mostly Cloudy,350,2013-05-11 01:15:00
8:35 PM,53.6,35.6,51,30.30,10.0,North,10.4,-,N/A,,Mostly Cloudy,350,2013-05-11 01:35:00
8:55 PM,53.6,32.0,44,30.31,10.0,North,8.1,-,N/A,,Mostly Cloudy,350,2013-05-11 01:55:00
9:15 PM,51.8,28.4,41,30.32,10.0,NNW,9.2,-,N/A,,Overcast,340,2013-05-11 02:15:00
9:35 PM,50.0,26.6,40,30.33,10.0,NW,5.8,-,N/A,,Overcast,320,2013-05-11 02:35:00
9:55 PM,50.0,26.6,40,30.34,10.0,WNW,4.6,-,N/A,,Overcast,290,2013-05-11 02:55:00
10:15 PM,50.0,26.6,40,30.35,10.0,West,5.8,-,N/A,,Overcast,270,2013-05-11 03:15:00
10:35 PM,50.0,26.6,40,30.36,10.0,NNW,6.9,-,N/A,,Overcast,340,2013-05-11 03:35:00
10:55 PM,50.0,23.0,35,30.37,10.0,North,8.1,-,N/A,,Overcast,350,2013-05-11 03:55:00
11:15 PM,48.2,19.4,32,30.37,10.0,NW,6.9,-,N/A,,Overcast,320,2013-05-11 04:15:00
11:35 PM,48.2,24.8,40,30.38,10.0,WNW,4.6,-,N/A,,Overcast,300,2013-05-11 04:35:00
11:55 PM,46.4,24.8,43,30.38,10.0,WNW,6.9,-,N/A,,Overcast,290,2013-05-11 04:55:00